Regional Weather Roundup
Issued by NWS Green Bay, WI

Home | Current Version | Previous Version | Text Only | Print | Product List | Glossary On
Versions: 1 2 3 4 5 6 7 8 9 10 11 12 13 14 15 16 17 18 19 20 21 22 23 24 25 26 27 28 29 30 31 32 33 34 35 36 37 38 39 40 41 42 43 44 45 46 47 48 49 50
232
ASUS43 KGRB 081800
RWRGRB

NORTH-CENTRAL AND NORTHEAST WISCONSIN REGIONAL WEATHER ROUNDUP
NATIONAL WEATHER SERVICE GREEN BAY WI
1200 PM CST THU DEC 08 2016

WIZ005-009-010>012-018-019-081900-
NORTH CENTRAL WISCONSIN

CITY           SKY/WX    TMP DP  RH WIND       PRES   REMARKS
IRONWOOD       LGT SNOW  26  22  84 NW12      30.16R FOG
MANITOWISH WTR NOT AVBL
ARBOR VITAE    NOT AVBL
EAGLE RIVER    NOT AVBL
LAND O LAKES   NOT AVBL
RHINELANDER    CLOUDY    26  18  71 NW10      30.10R
PHILLIPS       NOT AVBL
ANTIGO         NOT AVBL
TOMAHAWK       NOT AVBL
MERRILL        NOT AVBL
$$

WIZ013-073-081900-
NORTHEAST WISCONSIN

CITY           SKY/WX    TMP DP  RH WIND       PRES   REMARKS
IRON MOUNTAIN  PTSUNNY   30  17  58 NW21      30.04R
MARINETTE      PTSUNNY   32  19  58 MISG        N/A
$$

WIZ017-030-035>037-045-081900-
CENTRAL WISCONSIN

CITY           SKY/WX    TMP DP  RH WIND       PRES   REMARKS
MEDFORD        NOT AVBL
WAUSAU         CLOUDY    25  15  66 NW12      30.15R
MOSINEE        CLOUDY    25  19  80 NW15G22   30.17R
MARSHFIELD     CLOUDY    23  16  74 NW16      30.19R WCI  10
WISC RAPIDS    CLOUDY    24  17  74 NW15      30.22R
STEVENS POINT  NOT AVBL
WAUPACA        NOT AVBL
SHAWANO        NOT AVBL
CLINTONVILLE   NOT AVBL
WAUTOMA        FLURRIES  23  17  78 W15       30.22R
$$

WIZ038-039-048-051-081900-
FOX VALLEY

CITY           SKY/WX    TMP DP  RH WIND       PRES   REMARKS
NWS GREEN BAY  FLURRIES  31  21  66 W20G29    30.12S
APPLETON       PTSUNNY   27  16  63 W17       30.13S
OSHKOSH        MOSUNNY   25  17  72 W18G26    30.16R
FOND DU LAC    PTSUNNY   25  15  66 W18G30    30.17S
$$

WIZ022-050-052-081900-
EAST CENTRAL WISCONSIN

CITY           SKY/WX    TMP DP  RH WIND       PRES   REMARKS
EPHRAIM        NOT AVBL
WASHINGTON ISL NOT AVBL
STURGEON BAY   MOSUNNY   31  20  63 W20G25    30.06F
MANITOWOC      NOT AVBL
SHEBOYGAN      PTSUNNY   26  17  68 W18G32    30.14R
$$

LMZ563-521-522-541>543-081900-
LAKESHORE

STATION/POSITION TIME  TEMP    WIND        PRES    VSBY  WAVE
                       AIR SEA DIR/SP/G                  HT/PER
                 (UTC) (F)     (DEG/KT/KT) (MB)    (MI)  (FT/S)
SHEBOYGAN LKSHOR 1700   23     280/ 21/ 28 1020.9F
KEWAUNEE LKSHORE 1730   27     290/ 16/ 21 1018.4R
NORTHPORT PIER   1740   32     310/ 18/ 24 1016.9S
SISTER BAY LKSHO 1721   33     330/ 21/ 24   N/A
CHAMBERS ISLAND  1740   32     280/  7/ 15 1017.6R
MENOMINEE LKSHOR 1730   30     290/ 15/ 21 1017.4R
$$




USA.gov is the U.S. government's official web portal to all federal, state and local government web resources and services.